Quesnel,

9:21 AM PST on December 15, 2017 (GMT -0800)
Quesnel

Weather History for CYQZ - October, 2012

Change the Weather History Date:

Tuesday, October 16, 2012

  Actual Average Record
Temperature  
Mean Temperature 47 °F -  
Max Temperature 55 °F 41 °F 62 °F (2015)
Min Temperature 39 °F 26 °F 19 °F (2008)
Degree Days  
Heating Degree Days 18    
Moisture  
Dew Point 30 °F    
Average Humidity 54    
Maximum Humidity 81    
Minimum Humidity 29    
Precipitation  
Precipitation 0.00 in - - ()
Sea Level Pressure  
Sea Level Pressure 29.63 in    
Wind  
Wind Speed 7 mph ()    
Max Wind Speed 20 mph    
Max Gust Speed 32 mph    
Visibility 9.0 miles    
Events      
Averages and records for this station are not official NWS values.
T = Trace of Precipitation, MM = Missing Value Source: Averaged Metar Reports

Daily Weather History Graph

Daily Weather History Graph

Search for Another Location

Airport or City:

Trip Planner

Search our weather history database for the weather conditions in past years. The results will help you decide how hot, cold, wet, or windy it might be!

Date:

Astronomy

Oct. 16, 2012 Rise Set
Actual Time 7:39 AM PDT 6:10 PM PDT
Civil Twilight 7:04 AM PDT 6:45 PM PDT
Nautical Twilight 6:24 AM PDT 7:25 PM PDT
Astronomical Twilight 5:44 AM PDT 8:05 PM PDT
Moon 9:27 AM PDT (10/16) 6:38 PM PDT (10/16)
Length of Visible Light 11h 41m
Length of Day
10h 31m
New Moon, 2% of the Moon is Illuminated
Oct 16
New Moon
Oct 21
First Quarter
Oct 29
Full
Nov 6
Last Quarter
Nov 13
New

Hourly Weather History & Observations

Time (PDT) Temp. Windchill Dew Point Humidity Pressure Visibility Wind Dir Wind Speed Gust Speed Precip Events Conditions
12:00 AM 50.0 °F - 37.4 °F 62% 29.21 in 9.0 mi East 10.4 mph - N/A   Partly Cloudy
1:00 AM 48.2 °F - 37.4 °F 66% 29.23 in 9.0 mi ESE 6.9 mph - N/A   Partly Cloudy
2:00 AM 50.0 °F - 37.4 °F 62% 29.26 in 9.0 mi ESE 4.6 mph - N/A   Mostly Cloudy
3:00 AM 48.2 °F - 37.4 °F 66% 29.29 in 9.0 mi SSE 9.2 mph - N/A   Mostly Cloudy
4:00 AM 44.6 °F 39.2 °F 39.2 °F 81% 29.34 in 9.0 mi South 10.4 mph - N/A   Overcast
5:00 AM 42.8 °F 37.5 °F 37.4 °F 81% 29.37 in 9.0 mi South 9.2 mph - N/A   Overcast
6:00 AM 42.8 °F 41.1 °F 37.4 °F 81% 29.44 in 9.0 mi ENE 3.5 mph - N/A   Overcast
7:00 AM 42.8 °F 39.3 °F 35.6 °F 76% 29.49 in 9.0 mi South 5.8 mph - N/A   Mostly Cloudy
8:00 AM 42.8 °F 39.3 °F 35.6 °F 76% 29.54 in 9.0 mi ESE 5.8 mph - N/A   Scattered Clouds
9:00 AM 44.6 °F 42.2 °F 32.0 °F 61% 29.57 in 9.0 mi Variable 4.6 mph - N/A   Clear
10:00 AM 46.4 °F - 30.2 °F 53% 29.62 in 9.0 mi Calm Calm - N/A   Clear
11:00 AM 50.0 °F - 26.6 °F 40% 29.64 in 9.0 mi SW 8.1 mph - N/A   Clear
1:00 PM 53.6 °F - 24.8 °F 33% 29.69 in 9.0 mi WNW 5.8 mph - N/A   Mostly Cloudy
2:00 PM 55.4 °F - 23.0 °F 29% 29.70 in 9.0 mi West 8.1 mph 20.7 mph N/A   Scattered Clouds
2:25 PM 53.6 °F - 23.0 °F 30% 29.72 in 9.0 mi NW 19.6 mph 28.8 mph N/A   Mostly Cloudy
3:00 PM 53.6 °F - 24.8 °F 33% 29.74 in 9.0 mi West 9.2 mph 19.6 mph N/A   Scattered Clouds
4:00 PM 53.6 °F - 23.0 °F 30% 29.78 in 9.0 mi NW 16.1 mph 32.2 mph N/A   Mostly Cloudy
5:00 PM 50.0 °F - 21.2 °F 32% 29.83 in 9.0 mi WNW 13.8 mph 25.3 mph N/A   Clear
6:00 PM 50.0 °F - 19.4 °F 30% 29.87 in 9.0 mi WNW 12.7 mph 20.7 mph N/A   Mostly Cloudy
7:00 PM 42.8 °F 40.1 °F 26.6 °F 53% 29.91 in 9.0 mi North 4.6 mph - N/A   Scattered Clouds
8:00 PM 44.6 °F 41.4 °F 24.8 °F 46% 29.93 in 9.0 mi NNW 5.8 mph - N/A   Mostly Cloudy
9:00 PM 39.2 °F - 26.6 °F 61% 29.97 in 9.0 mi Calm Calm - N/A   Mostly Cloudy
10:00 PM 41.0 °F - 24.8 °F 53% 30.01 in 9.0 mi Variable 2.3 mph - N/A   Clear
11:00 PM 39.2 °F 37.0 °F 23.0 °F 52% 30.04 in 9.0 mi North 3.5 mph - N/A   Clear